Year,Month,Day,Hour,Minute,Value (Times are PST for temperature in C)
2013,04,24,00,00,8.80
2013,04,24,00,01,8.80
2013,04,24,00,02,8.80
2013,04,24,00,03,8.80
2013,04,24,00,04,8.80
2013,04,24,00,05,8.80
2013,04,24,00,06,8.80
2013,04,24,00,07,8.80
2013,04,24,00,08,8.80
2013,04,24,00,09,8.80
2013,04,24,00,10,8.80
2013,04,24,00,11,8.80
2013,04,24,00,12,8.80
2013,04,24,00,13,8.80
2013,04,24,00,14,8.80
2013,04,24,00,15,8.80
2013,04,24,00,16,8.80
2013,04,24,00,17,8.80
2013,04,24,00,18,8.70
2013,04,24,00,19,8.70
2013,04,24,00,20,8.70
2013,04,24,00,21,8.70
2013,04,24,00,22,8.60
2013,04,24,00,23,8.60
2013,04,24,00,24,8.60
2013,04,24,00,25,8.60
2013,04,24,00,26,8.60
2013,04,24,00,27,8.60
2013,04,24,00,28,8.60
2013,04,24,00,29,8.60
2013,04,24,00,30,8.60
2013,04,24,00,31,8.60
2013,04,24,00,32,8.60
2013,04,24,00,33,8.60
2013,04,24,00,34,8.60
2013,04,24,00,35,8.60
2013,04,24,00,36,8.60
2013,04,24,00,37,8.60
2013,04,24,00,38,8.60
2013,04,24,00,39,8.60
2013,04,24,00,40,8.50
2013,04,24,00,41,8.50
2013,04,24,00,42,8.50
2013,04,24,00,43,8.50
2013,04,24,00,44,8.60
2013,04,24,00,45,8.60
2013,04,24,00,46,8.60
2013,04,24,00,47,8.60
2013,04,24,00,48,8.60
2013,04,24,00,49,8.60
2013,04,24,00,50,8.60
2013,04,24,00,51,8.60
2013,04,24,00,52,8.60
2013,04,24,00,53,8.60
2013,04,24,00,54,8.70
2013,04,24,00,55,8.60
2013,04,24,00,56,8.60
2013,04,24,00,57,8.60
2013,04,24,00,58,8.60
2013,04,24,00,59,8.60
2013,04,24,01,00,8.60
2013,04,24,01,01,8.60
2013,04,24,01,02,8.60
2013,04,24,01,03,8.60
2013,04,24,01,04,8.60
2013,04,24,01,05,8.60
2013,04,24,01,06,8.60
2013,04,24,01,07,8.60
2013,04,24,01,08,8.60
2013,04,24,01,09,8.60
2013,04,24,01,10,8.60
2013,04,24,01,11,8.60
2013,04,24,01,12,8.60
2013,04,24,01,13,8.60
2013,04,24,01,14,8.60
2013,04,24,01,15,8.60
2013,04,24,01,16,8.60
2013,04,24,01,17,8.60
2013,04,24,01,18,8.60
2013,04,24,01,19,8.60
2013,04,24,01,20,8.60
2013,04,24,01,21,8.60
2013,04,24,01,22,8.60
2013,04,24,01,23,8.60
2013,04,24,01,24,8.60
2013,04,24,01,25,8.60
2013,04,24,01,26,8.60
2013,04,24,01,27,8.60
2013,04,24,01,28,8.60
2013,04,24,01,29,8.60
2013,04,24,01,30,8.60
2013,04,24,01,31,8.60
2013,04,24,01,32,8.50
2013,04,24,01,33,8.50
2013,04,24,01,34,8.50
2013,04,24,01,35,8.40
2013,04,24,01,36,8.40
2013,04,24,01,37,8.40
2013,04,24,01,38,8.30
2013,04,24,01,39,8.30
2013,04,24,01,40,8.30
2013,04,24,01,41,8.20
2013,04,24,01,42,8.20
2013,04,24,01,43,8.20
2013,04,24,01,44,8.20
2013,04,24,01,45,8.20
2013,04,24,01,46,8.20
2013,04,24,01,47,8.20
2013,04,24,01,48,8.20
2013,04,24,01,49,8.20
2013,04,24,01,50,8.10
2013,04,24,01,51,8.10
2013,04,24,01,52,8.10
2013,04,24,01,53,8.10
2013,04,24,01,54,8.10
2013,04,24,01,55,8.10
2013,04,24,01,56,8.10
2013,04,24,01,57,8.10
2013,04,24,01,58,8.10
2013,04,24,01,59,8.10
2013,04,24,02,00,8.10
2013,04,24,02,01,8.20
2013,04,24,02,02,8.30
2013,04,24,02,03,8.30
2013,04,24,02,04,8.40
2013,04,24,02,05,8.40
2013,04,24,02,06,8.50
2013,04,24,02,07,8.50
2013,04,24,02,08,8.50
2013,04,24,02,09,8.60
2013,04,24,02,10,8.60
2013,04,24,02,11,8.60
2013,04,24,02,12,8.50
2013,04,24,02,13,8.50
2013,04,24,02,14,8.50
2013,04,24,02,15,8.40
2013,04,24,02,16,8.40
2013,04,24,02,17,8.40
2013,04,24,02,18,8.40
2013,04,24,02,19,8.40
2013,04,24,02,20,8.40
2013,04,24,02,21,8.50
2013,04,24,02,22,8.50
2013,04,24,02,23,8.60
2013,04,24,02,24,8.60
2013,04,24,02,25,8.50
2013,04,24,02,26,8.50
2013,04,24,02,27,8.50
2013,04,24,02,28,8.60
2013,04,24,02,29,8.60
2013,04,24,02,30,8.70
2013,04,24,02,31,8.70
2013,04,24,02,32,8.70
2013,04,24,02,33,8.60
2013,04,24,02,34,8.60
2013,04,24,02,35,8.60
2013,04,24,02,36,8.60
2013,04,24,02,37,8.60
2013,04,24,02,38,8.60
2013,04,24,02,39,8.60
2013,04,24,02,40,8.60
2013,04,24,02,41,8.60
2013,04,24,02,42,8.60
2013,04,24,02,43,8.50
2013,04,24,02,44,8.50
2013,04,24,02,45,8.50
2013,04,24,02,46,8.60
2013,04,24,02,47,8.60
2013,04,24,02,48,8.60
2013,04,24,02,49,8.60
2013,04,24,02,50,8.70
2013,04,24,02,51,8.70
2013,04,24,02,52,8.70
2013,04,24,02,53,8.80
2013,04,24,02,54,8.80
2013,04,24,02,55,8.80
2013,04,24,02,56,8.80
2013,04,24,02,57,8.80
2013,04,24,02,58,8.80
2013,04,24,02,59,8.80
2013,04,24,03,00,8.90
2013,04,24,03,01,8.90
2013,04,24,03,02,8.90
2013,04,24,03,06,8.80
2013,04,24,03,07,8.80
2013,04,24,03,08,8.80
2013,04,24,03,09,8.80
2013,04,24,03,10,8.90
2013,04,24,03,11,9.00
2013,04,24,03,12,9.00
2013,04,24,03,13,9.10
2013,04,24,03,14,9.20
2013,04,24,03,15,9.20
2013,04,24,03,16,9.30
2013,04,24,03,17,9.30
2013,04,24,03,18,9.30
2013,04,24,03,19,9.30
2013,04,24,03,20,9.30
2013,04,24,03,21,9.30
2013,04,24,03,22,9.40
2013,04,24,03,23,9.40
2013,04,24,03,24,9.40
2013,04,24,03,25,9.40
2013,04,24,03,26,9.40
2013,04,24,03,27,9.40
2013,04,24,03,28,9.40
2013,04,24,03,29,9.40
2013,04,24,03,30,9.40
2013,04,24,03,31,9.30
2013,04,24,03,32,9.30
2013,04,24,03,33,9.30
2013,04,24,03,34,9.30
2013,04,24,03,35,9.30
2013,04,24,03,36,9.30
2013,04,24,03,37,9.30
2013,04,24,03,38,9.30
2013,04,24,03,39,9.30
2013,04,24,03,40,9.30
2013,04,24,03,41,9.30
2013,04,24,03,42,9.30
2013,04,24,03,43,9.30
2013,04,24,03,44,9.30
2013,04,24,03,45,9.30
2013,04,24,03,46,9.30
2013,04,24,03,47,9.30
2013,04,24,03,48,9.30
2013,04,24,03,49,9.30
2013,04,24,03,50,9.30
2013,04,24,03,51,9.30
2013,04,24,03,52,9.30
2013,04,24,03,53,9.20
2013,04,24,03,54,9.20
2013,04,24,03,55,9.10
2013,04,24,03,56,9.00
2013,04,24,03,57,8.80
2013,04,24,03,58,8.60
2013,04,24,03,59,8.50
2013,04,24,04,00,8.30
2013,04,24,04,01,8.20
2013,04,24,04,02,8.00
2013,04,24,04,03,8.00
2013,04,24,04,04,7.90
2013,04,24,04,05,7.80
2013,04,24,04,06,7.70
2013,04,24,04,07,7.70
2013,04,24,04,08,7.60
2013,04,24,04,09,7.60
2013,04,24,04,10,7.60
2013,04,24,04,11,7.60
2013,04,24,04,12,7.60
2013,04,24,04,13,7.60
2013,04,24,04,14,7.60
2013,04,24,04,15,7.70
2013,04,24,04,16,7.70
2013,04,24,04,17,7.70
2013,04,24,04,18,7.70
2013,04,24,04,19,7.80
2013,04,24,04,20,7.80
2013,04,24,04,21,7.80
2013,04,24,04,22,7.80
2013,04,24,04,23,7.80
2013,04,24,04,24,7.80
2013,04,24,04,25,7.80
2013,04,24,04,26,7.80
2013,04,24,04,27,7.90
2013,04,24,04,28,7.90
2013,04,24,04,29,7.90
2013,04,24,04,30,7.80
2013,04,24,04,31,7.90
2013,04,24,04,32,7.80
2013,04,24,04,33,7.90
2013,04,24,04,34,7.80
2013,04,24,04,35,7.80
2013,04,24,04,36,7.80
2013,04,24,04,37,7.80
2013,04,24,04,38,7.70
2013,04,24,04,39,7.70
2013,04,24,04,40,7.70
2013,04,24,04,41,7.70
2013,04,24,04,42,7.70
2013,04,24,04,43,7.60
2013,04,24,04,44,7.60
2013,04,24,04,45,7.60
2013,04,24,04,46,7.70
2013,04,24,04,47,7.70
2013,04,24,04,48,7.70
2013,04,24,04,49,7.70
2013,04,24,04,50,7.70
2013,04,24,04,51,7.70
2013,04,24,04,52,7.70
2013,04,24,04,53,7.70
2013,04,24,04,54,7.70
2013,04,24,04,55,7.60
2013,04,24,04,56,7.60
2013,04,24,04,57,7.60
2013,04,24,04,58,7.60
2013,04,24,04,59,7.50
2013,04,24,05,00,7.50
2013,04,24,05,01,7.50
2013,04,24,05,02,7.50
2013,04,24,05,03,7.50
2013,04,24,05,04,7.50
2013,04,24,05,05,7.60
2013,04,24,05,06,7.60
2013,04,24,05,07,7.70
2013,04,24,05,08,7.80
2013,04,24,05,09,7.80
2013,04,24,05,10,7.90
2013,04,24,05,11,8.00
2013,04,24,05,12,8.00
2013,04,24,05,13,8.10
2013,04,24,05,14,8.20
2013,04,24,05,15,8.20
2013,04,24,05,16,8.20
2013,04,24,05,17,8.30
2013,04,24,05,18,8.30
2013,04,24,05,19,8.30
2013,04,24,05,20,8.30
2013,04,24,05,21,8.30
2013,04,24,05,22,8.30
2013,04,24,05,23,8.20
2013,04,24,05,24,8.20
2013,04,24,05,25,8.20
2013,04,24,05,26,8.20
2013,04,24,05,27,8.20
2013,04,24,05,28,8.10
2013,04,24,05,29,8.00
2013,04,24,05,30,7.90
2013,04,24,05,31,7.70
2013,04,24,05,32,7.50
2013,04,24,05,33,7.40
2013,04,24,05,34,7.20
2013,04,24,05,35,7.10
2013,04,24,05,36,6.90
2013,04,24,05,37,6.80
2013,04,24,05,38,6.70
2013,04,24,05,39,6.50
2013,04,24,05,40,6.40
2013,04,24,05,41,6.30
2013,04,24,05,42,6.20
2013,04,24,05,43,6.10
2013,04,24,05,44,6.10
2013,04,24,05,45,6.00
2013,04,24,05,46,6.00
2013,04,24,05,47,5.90
2013,04,24,05,48,5.90
2013,04,24,05,49,5.90
2013,04,24,05,50,5.90
2013,04,24,05,51,5.90
2013,04,24,05,52,5.90
2013,04,24,05,53,6.00
2013,04,24,05,54,6.10
2013,04,24,05,55,6.10
2013,04,24,05,56,6.20
2013,04,24,05,57,6.20
2013,04,24,05,58,6.30
2013,04,24,05,59,6.30
2013,04,24,06,00,6.40
2013,04,24,06,01,6.40
2013,04,24,06,02,6.40
2013,04,24,06,03,6.30
2013,04,24,06,04,6.30
2013,04,24,06,05,6.30
2013,04,24,06,06,6.30
2013,04,24,06,07,6.30
2013,04,24,06,08,6.20
2013,04,24,06,09,6.30
2013,04,24,06,10,6.30
2013,04,24,06,11,6.30
2013,04,24,06,12,6.40
2013,04,24,06,13,6.40
2013,04,24,06,14,6.50
2013,04,24,06,15,6.60
2013,04,24,06,16,6.60
2013,04,24,06,17,6.70
2013,04,24,06,18,6.70
2013,04,24,06,19,6.80
2013,04,24,06,20,6.80
2013,04,24,06,21,6.90
2013,04,24,06,22,6.90
2013,04,24,06,23,6.90
2013,04,24,06,24,6.90
2013,04,24,06,25,7.00
2013,04,24,06,26,7.00
2013,04,24,06,27,7.00
2013,04,24,06,28,7.10
2013,04,24,06,29,7.10
2013,04,24,06,30,7.00
2013,04,24,06,31,7.00
2013,04,24,06,32,7.00
2013,04,24,06,33,7.00
2013,04,24,06,34,6.90
2013,04,24,06,35,6.90
2013,04,24,06,36,6.90
2013,04,24,06,37,6.80
2013,04,24,06,38,6.80
2013,04,24,06,39,6.80
2013,04,24,06,40,6.70
2013,04,24,06,41,6.70
2013,04,24,06,42,6.70
2013,04,24,06,43,6.80
2013,04,24,06,44,6.80
2013,04,24,06,45,6.80
2013,04,24,06,46,6.90
2013,04,24,06,47,7.00
2013,04,24,06,48,7.10
2013,04,24,06,49,7.20
2013,04,24,06,50,7.30
2013,04,24,06,51,7.50
2013,04,24,06,52,7.60
2013,04,24,06,53,7.70
2013,04,24,06,54,7.80
2013,04,24,06,55,7.80
2013,04,24,06,56,7.90
2013,04,24,06,57,7.90
2013,04,24,06,58,8.00
2013,04,24,06,59,8.00
2013,04,24,07,00,8.00
2013,04,24,07,01,8.00
2013,04,24,07,02,8.00
2013,04,24,07,03,8.00
2013,04,24,07,04,7.90
2013,04,24,07,05,7.90
2013,04,24,07,06,7.80
2013,04,24,07,07,7.70
2013,04,24,07,08,7.60
2013,04,24,07,09,7.50
2013,04,24,07,10,7.40
2013,04,24,07,11,7.30
2013,04,24,07,12,7.30
2013,04,24,07,13,7.20
2013,04,24,07,14,7.20
2013,04,24,07,15,7.20
2013,04,24,07,16,7.20
2013,04,24,07,17,7.10
2013,04,24,07,18,7.10
2013,04,24,07,19,7.10
2013,04,24,07,20,7.00
2013,04,24,07,21,7.00
2013,04,24,07,22,7.00
2013,04,24,07,23,6.90
2013,04,24,07,24,6.90
2013,04,24,07,25,6.90
2013,04,24,07,26,6.90
2013,04,24,07,27,6.90
2013,04,24,07,28,6.80
2013,04,24,07,29,6.80
2013,04,24,07,30,6.80
2013,04,24,07,31,6.80
2013,04,24,07,32,6.80
2013,04,24,07,33,6.80
2013,04,24,07,34,6.80
2013,04,24,07,35,6.80
2013,04,24,07,36,6.80
2013,04,24,07,37,6.90
2013,04,24,07,38,6.90
2013,04,24,07,39,6.90
2013,04,24,07,40,6.90
2013,04,24,07,41,7.00
2013,04,24,07,42,7.00
2013,04,24,07,43,7.00
2013,04,24,07,44,7.10
2013,04,24,07,45,7.10
2013,04,24,07,46,7.20
2013,04,24,07,47,7.30
2013,04,24,07,48,7.30
2013,04,24,07,49,7.40
2013,04,24,07,50,7.50
2013,04,24,07,51,7.50
2013,04,24,07,52,7.60
2013,04,24,07,53,7.60
2013,04,24,07,54,7.70
2013,04,24,07,55,7.80
2013,04,24,07,56,7.80
2013,04,24,07,57,7.90
2013,04,24,07,58,8.00
2013,04,24,07,59,8.00
2013,04,24,08,00,8.10
2013,04,24,08,01,8.20
2013,04,24,08,02,8.20
2013,04,24,08,03,8.30
2013,04,24,08,04,8.40
2013,04,24,08,05,8.50
2013,04,24,08,06,8.50
2013,04,24,08,07,8.60
2013,04,24,08,08,8.70
2013,04,24,08,09,8.80
2013,04,24,08,10,8.90
2013,04,24,08,11,8.90
2013,04,24,08,12,9.00
2013,04,24,08,13,9.10
2013,04,24,08,14,9.20
2013,04,24,08,15,9.30
2013,04,24,08,16,9.40
2013,04,24,08,17,9.50
2013,04,24,08,18,9.60
2013,04,24,08,19,9.70
2013,04,24,08,20,9.80
2013,04,24,08,21,9.90
2013,04,24,08,22,10.00
2013,04,24,08,23,10.10
2013,04,24,08,24,10.20
2013,04,24,08,25,10.30
2013,04,24,08,26,10.40
2013,04,24,08,27,10.50
2013,04,24,08,28,10.60
2013,04,24,08,29,10.70
2013,04,24,08,30,10.80
2013,04,24,08,31,10.80
2013,04,24,08,32,10.90
2013,04,24,08,33,11.00
2013,04,24,08,34,11.10
2013,04,24,08,35,11.10
2013,04,24,08,36,11.20
2013,04,24,08,37,11.30
2013,04,24,08,38,11.30
2013,04,24,08,39,11.40
2013,04,24,08,40,11.40
2013,04,24,08,41,11.50
2013,04,24,08,42,11.60
2013,04,24,08,43,11.60
2013,04,24,08,44,11.70
2013,04,24,08,45,11.70
2013,04,24,08,46,11.80
2013,04,24,08,47,11.80
2013,04,24,08,48,11.90
2013,04,24,08,49,11.90
2013,04,24,08,50,12.00
2013,04,24,08,51,12.00
2013,04,24,08,52,12.10
2013,04,24,08,53,12.10
2013,04,24,08,54,12.20
2013,04,24,08,55,12.20
2013,04,24,08,56,12.30
2013,04,24,08,57,12.30
2013,04,24,08,58,12.30
2013,04,24,08,59,12.30
2013,04,24,09,00,12.30
2013,04,24,09,01,12.40
2013,04,24,09,02,12.40
2013,04,24,09,03,12.40
2013,04,24,09,04,12.40
2013,04,24,09,05,12.40
2013,04,24,09,06,12.40
2013,04,24,09,07,12.50
2013,04,24,09,08,12.50
2013,04,24,09,09,12.60
2013,04,24,09,10,12.60
2013,04,24,09,11,12.60
2013,04,24,09,12,12.60
2013,04,24,09,13,12.60
2013,04,24,09,14,12.70
2013,04,24,09,15,12.70
2013,04,24,09,16,12.70
2013,04,24,09,17,12.70
2013,04,24,09,18,12.70
2013,04,24,09,19,12.70
2013,04,24,09,20,12.70
2013,04,24,09,21,12.70
2013,04,24,09,22,12.70
2013,04,24,09,23,12.80
2013,04,24,09,24,12.80
2013,04,24,09,25,12.80
2013,04,24,09,26,12.80
2013,04,24,09,27,12.90
2013,04,24,09,28,12.90
2013,04,24,09,29,12.90
2013,04,24,09,30,12.90
2013,04,24,09,31,12.90
2013,04,24,09,32,13.00
2013,04,24,09,33,13.00
2013,04,24,09,34,13.10
2013,04,24,09,35,13.10
2013,04,24,09,36,13.20
2013,04,24,09,37,13.20
2013,04,24,09,38,13.20
2013,04,24,09,39,13.20
2013,04,24,09,40,13.20
2013,04,24,09,41,13.20
2013,04,24,09,42,13.30
2013,04,24,09,43,13.30
2013,04,24,09,44,13.30
2013,04,24,09,45,13.20
2013,04,24,09,46,13.20
2013,04,24,09,47,13.20
2013,04,24,09,48,13.10
2013,04,24,09,49,13.00
2013,04,24,09,50,13.00
2013,04,24,09,51,13.00
2013,04,24,09,52,13.00
2013,04,24,09,53,13.00
2013,04,24,09,54,13.10
2013,04,24,09,55,13.10
2013,04,24,09,56,13.20
2013,04,24,09,57,13.20
2013,04,24,09,58,13.30
2013,04,24,09,59,13.30
2013,04,24,10,00,13.30
2013,04,24,10,01,13.30
2013,04,24,10,02,13.40
2013,04,24,10,03,13.40
2013,04,24,10,04,13.40
2013,04,24,10,05,13.40
2013,04,24,10,06,13.40
2013,04,24,10,07,13.50
2013,04,24,10,08,13.50
2013,04,24,10,09,13.40
2013,04,24,10,10,13.40
2013,04,24,10,11,13.30
2013,04,24,10,12,13.30
2013,04,24,10,13,13.30
2013,04,24,10,14,13.30
2013,04,24,10,15,13.30
2013,04,24,10,16,13.30
2013,04,24,10,17,13.30
2013,04,24,10,18,13.30
2013,04,24,10,19,13.30
2013,04,24,10,20,13.30
2013,04,24,10,21,13.30
2013,04,24,10,22,13.40
2013,04,24,10,23,13.40
2013,04,24,10,24,13.40
2013,04,24,10,25,13.40
2013,04,24,10,26,13.40
2013,04,24,10,27,13.40
2013,04,24,10,28,13.50
2013,04,24,10,29,13.50
2013,04,24,10,30,13.50
2013,04,24,10,31,13.60
2013,04,24,10,32,13.60
2013,04,24,10,33,13.70
2013,04,24,10,34,13.70
2013,04,24,10,35,13.80
2013,04,24,10,36,13.80
2013,04,24,10,37,13.80
2013,04,24,10,38,13.80
2013,04,24,10,39,13.80
2013,04,24,10,40,13.80
2013,04,24,10,41,13.80
2013,04,24,10,42,13.80
2013,04,24,10,43,13.80
2013,04,24,10,44,13.90
2013,04,24,10,45,14.00
2013,04,24,10,46,14.10
2013,04,24,10,47,14.10
2013,04,24,10,48,14.20
2013,04,24,10,49,14.20
2013,04,24,10,50,14.30
2013,04,24,10,51,14.30
2013,04,24,10,52,14.30
2013,04,24,10,53,14.30
2013,04,24,10,54,14.40
2013,04,24,10,55,14.40
2013,04,24,10,56,14.50
2013,04,24,10,57,14.50
2013,04,24,10,58,14.50
2013,04,24,10,59,14.50
2013,04,24,11,00,14.60
2013,04,24,11,01,14.60
2013,04,24,11,02,14.60
2013,04,24,11,03,14.60
2013,04,24,11,04,14.50
2013,04,24,11,05,14.50
2013,04,24,11,06,14.50
2013,04,24,11,07,14.40
2013,04,24,11,08,14.50
2013,04,24,11,09,14.50
2013,04,24,11,10,14.60
2013,04,24,11,11,14.60
2013,04,24,11,12,14.70
2013,04,24,11,13,14.70
2013,04,24,11,14,14.70
2013,04,24,11,15,14.70
2013,04,24,11,16,14.70
2013,04,24,11,17,14.70
2013,04,24,11,18,14.80
2013,04,24,11,19,14.80
2013,04,24,11,20,14.90
2013,04,24,11,21,14.90
2013,04,24,11,22,14.90
2013,04,24,11,23,14.90
2013,04,24,11,24,14.90
2013,04,24,11,25,15.00
2013,04,24,11,26,15.00
2013,04,24,11,27,15.00
2013,04,24,11,28,15.00
2013,04,24,11,29,15.00
2013,04,24,11,30,15.00
2013,04,24,11,31,15.00
2013,04,24,11,32,15.00
2013,04,24,11,33,15.00
2013,04,24,11,34,15.00
2013,04,24,11,35,15.10
2013,04,24,11,36,15.10
2013,04,24,11,37,15.20
2013,04,24,11,38,15.20
2013,04,24,11,39,15.30
2013,04,24,11,40,15.30
2013,04,24,11,41,15.40
2013,04,24,11,42,15.40
2013,04,24,11,43,15.40
2013,04,24,11,44,15.40
2013,04,24,11,45,15.40
2013,04,24,11,46,15.40
2013,04,24,11,47,15.40
2013,04,24,11,48,15.40
2013,04,24,11,49,15.40
2013,04,24,11,50,15.40
2013,04,24,11,51,15.40
2013,04,24,11,52,15.40
2013,04,24,11,53,15.50
2013,04,24,11,54,15.50
2013,04,24,11,55,15.60
2013,04,24,11,56,15.60
2013,04,24,11,57,15.70
2013,04,24,11,58,15.70
2013,04,24,11,59,15.70
2013,04,24,12,00,15.70
2013,04,24,12,01,15.70
2013,04,24,12,02,15.70
2013,04,24,12,03,15.70
2013,04,24,12,04,15.70
2013,04,24,12,05,15.70
2013,04,24,12,06,15.70
2013,04,24,12,07,15.70
2013,04,24,12,08,15.70
2013,04,24,12,09,15.70
2013,04,24,12,10,15.70
2013,04,24,12,11,15.80
2013,04,24,12,12,15.80
2013,04,24,12,13,15.80
2013,04,24,12,14,15.80
2013,04,24,12,15,15.80
2013,04,24,12,16,15.80
2013,04,24,12,17,15.80
2013,04,24,12,18,15.80
2013,04,24,12,19,15.80
2013,04,24,12,20,15.70
2013,04,24,12,21,15.70
2013,04,24,12,22,15.70
2013,04,24,12,23,15.70
2013,04,24,12,24,15.70
2013,04,24,12,25,15.80
2013,04,24,12,26,15.90
2013,04,24,12,27,15.90
2013,04,24,12,28,16.00
2013,04,24,12,29,16.10
2013,04,24,12,30,16.10
2013,04,24,12,31,16.20
2013,04,24,12,32,16.20
2013,04,24,12,33,16.20
2013,04,24,12,34,16.20
2013,04,24,12,35,16.20
2013,04,24,12,36,16.20
2013,04,24,12,37,16.20
2013,04,24,12,38,16.20
2013,04,24,12,39,16.20
2013,04,24,12,40,16.30
2013,04,24,12,41,16.30
2013,04,24,12,42,16.30
2013,04,24,12,43,16.40
2013,04,24,12,44,16.40
2013,04,24,12,45,16.40
2013,04,24,12,46,16.40
2013,04,24,12,47,16.40
2013,04,24,12,48,16.50
2013,04,24,12,49,16.50
2013,04,24,12,50,16.60
2013,04,24,12,51,16.60
2013,04,24,12,52,16.60
2013,04,24,12,53,16.60
2013,04,24,12,54,16.50
2013,04,24,12,55,16.30
2013,04,24,12,56,16.30
2013,04,24,12,57,16.30
2013,04,24,12,58,16.30
2013,04,24,12,59,16.30
2013,04,24,13,00,16.30
2013,04,24,13,01,16.30
2013,04,24,13,02,16.30
2013,04,24,13,03,16.30
2013,04,24,13,04,16.40
2013,04,24,13,05,16.40
2013,04,24,13,06,16.40
2013,04,24,13,07,16.50
2013,04,24,13,08,16.50
2013,04,24,13,09,16.60
2013,04,24,13,10,16.60
2013,04,24,13,11,16.60
2013,04,24,13,12,16.70
2013,04,24,13,13,16.70
2013,04,24,13,14,16.70
2013,04,24,13,15,16.80
2013,04,24,13,16,16.80
2013,04,24,13,17,16.80
2013,04,24,13,18,16.80
2013,04,24,13,19,16.80
2013,04,24,13,20,16.80
2013,04,24,13,21,16.80
2013,04,24,13,22,16.80
2013,04,24,13,23,16.80
2013,04,24,13,24,16.90
2013,04,24,13,25,16.80
2013,04,24,13,26,16.80
2013,04,24,13,27,16.90
2013,04,24,13,28,16.90
2013,04,24,13,29,16.90
2013,04,24,13,30,17.00
2013,04,24,13,31,17.10
2013,04,24,13,32,17.10
2013,04,24,13,33,17.20
2013,04,24,13,34,17.30
2013,04,24,13,35,17.30
2013,04,24,13,36,17.40
2013,04,24,13,37,17.40
2013,04,24,13,38,17.40
2013,04,24,13,39,17.40
2013,04,24,13,40,17.40
2013,04,24,13,41,17.40
2013,04,24,13,42,17.40
2013,04,24,13,43,17.40
2013,04,24,13,44,17.50
2013,04,24,13,45,17.50
2013,04,24,13,46,17.50
2013,04,24,13,47,17.60
2013,04,24,13,48,17.60
2013,04,24,13,49,17.60
2013,04,24,13,50,17.70
2013,04,24,13,51,17.70
2013,04,24,13,52,17.60
2013,04,24,13,53,17.60
2013,04,24,13,54,17.60
2013,04,24,13,55,17.60
2013,04,24,13,56,17.70
2013,04,24,13,57,17.80
2013,04,24,13,58,17.80
2013,04,24,13,59,17.80
2013,04,24,14,00,17.70
2013,04,24,14,01,17.70
2013,04,24,14,02,17.70
2013,04,24,14,03,17.60
2013,04,24,14,04,17.60
2013,04,24,14,05,17.50
2013,04,24,14,06,17.50
2013,04,24,14,07,17.50
2013,04,24,14,08,17.50
2013,04,24,14,09,17.60
2013,04,24,14,10,17.70
2013,04,24,14,11,17.70
2013,04,24,14,12,17.80
2013,04,24,14,13,17.90
2013,04,24,14,14,17.90
2013,04,24,14,15,17.90
2013,04,24,14,16,18.00
2013,04,24,14,17,18.00
2013,04,24,14,18,18.10
2013,04,24,14,19,18.20
2013,04,24,14,20,18.20
2013,04,24,14,21,18.30
2013,04,24,14,22,18.30
2013,04,24,14,23,18.40
2013,04,24,14,24,18.40
2013,04,24,14,25,18.40
2013,04,24,14,26,18.40
2013,04,24,14,27,18.30
2013,04,24,14,28,18.30
2013,04,24,14,29,18.30
2013,04,24,14,30,18.40
2013,04,24,14,31,18.40
2013,04,24,14,32,18.40
2013,04,24,14,33,18.40
2013,04,24,14,34,18.40
2013,04,24,14,35,18.50
2013,04,24,14,36,18.50
2013,04,24,14,37,18.50
2013,04,24,14,38,18.50
2013,04,24,14,39,18.40
2013,04,24,14,40,18.40
2013,04,24,14,41,18.40
2013,04,24,14,42,18.30
2013,04,24,14,43,18.30
2013,04,24,14,44,18.30
2013,04,24,14,45,18.30
2013,04,24,14,46,18.40
2013,04,24,14,47,18.40
2013,04,24,14,48,18.40
2013,04,24,14,49,18.40
2013,04,24,14,50,18.50
2013,04,24,14,51,18.50
2013,04,24,14,52,18.50
2013,04,24,14,53,18.50
2013,04,24,14,54,18.50
2013,04,24,14,55,18.40
2013,04,24,14,56,18.40
2013,04,24,14,57,18.30
2013,04,24,14,58,18.30
2013,04,24,14,59,18.30
2013,04,24,15,00,18.30
2013,04,24,15,01,18.40
2013,04,24,15,02,18.40
2013,04,24,15,03,18.40
2013,04,24,15,04,18.40
2013,04,24,15,05,18.40
2013,04,24,15,06,18.40
2013,04,24,15,07,18.40
2013,04,24,15,08,18.40
2013,04,24,15,09,18.40
2013,04,24,15,10,18.40
2013,04,24,15,11,18.40
2013,04,24,15,12,18.40
2013,04,24,15,13,18.40
2013,04,24,15,14,18.30
2013,04,24,15,15,18.30
2013,04,24,15,16,18.20
2013,04,24,15,17,18.20
2013,04,24,15,18,18.30
2013,04,24,15,19,18.30
2013,04,24,15,20,18.30
2013,04,24,15,21,18.30
2013,04,24,15,22,18.40
2013,04,24,15,23,18.40
2013,04,24,15,24,18.50
2013,04,24,15,25,18.60
2013,04,24,15,26,18.60
2013,04,24,15,27,18.70
2013,04,24,15,28,18.70
2013,04,24,15,29,18.70
2013,04,24,15,30,18.70
2013,04,24,15,31,18.70
2013,04,24,15,32,18.70
2013,04,24,15,33,18.70
2013,04,24,15,34,18.60
2013,04,24,15,35,18.60
2013,04,24,15,36,18.60
2013,04,24,15,37,18.70
2013,04,24,15,38,18.70
2013,04,24,15,39,18.70
2013,04,24,15,40,18.80
2013,04,24,15,41,18.80
2013,04,24,15,42,18.80
2013,04,24,15,43,18.80
2013,04,24,15,44,18.80
2013,04,24,15,45,18.80
2013,04,24,15,46,18.80
2013,04,24,15,47,18.80
2013,04,24,15,48,18.70
2013,04,24,15,49,18.70
2013,04,24,15,50,18.70
2013,04,24,15,51,18.70
2013,04,24,15,52,18.80
2013,04,24,15,53,18.80
2013,04,24,15,54,18.80
2013,04,24,15,55,18.80
2013,04,24,15,56,18.80
2013,04,24,15,57,18.80
2013,04,24,15,58,18.70
2013,04,24,15,59,18.60
2013,04,24,16,00,18.50
2013,04,24,16,01,18.40
2013,04,24,16,02,18.30
2013,04,24,16,03,18.30
2013,04,24,16,04,18.20
2013,04,24,16,05,18.20
2013,04,24,16,06,18.20
2013,04,24,16,07,18.10
2013,04,24,16,08,18.10
2013,04,24,16,09,18.10
2013,04,24,16,10,18.10
2013,04,24,16,11,18.10
2013,04,24,16,12,18.00
2013,04,24,16,13,18.00
2013,04,24,16,14,18.00
2013,04,24,16,15,18.00
2013,04,24,16,16,18.00
2013,04,24,16,17,18.10
2013,04,24,16,18,18.10
2013,04,24,16,19,18.10
2013,04,24,16,20,18.20
2013,04,24,16,21,18.20
2013,04,24,16,22,18.10
2013,04,24,16,23,18.10
2013,04,24,16,24,18.00
2013,04,24,16,25,17.90
2013,04,24,16,26,17.80
2013,04,24,16,27,17.80
2013,04,24,16,28,17.70
2013,04,24,16,29,17.60
2013,04,24,16,30,17.60
2013,04,24,16,31,17.50
2013,04,24,16,32,17.50
2013,04,24,16,33,17.40
2013,04,24,16,34,17.40
2013,04,24,16,35,17.30
2013,04,24,16,36,17.30
2013,04,24,16,37,17.30
2013,04,24,16,38,17.30
2013,04,24,16,39,17.30
2013,04,24,16,40,17.30
2013,04,24,16,41,17.30
2013,04,24,16,42,17.30
2013,04,24,16,43,17.30
2013,04,24,16,44,17.30
2013,04,24,16,45,17.20
2013,04,24,16,46,17.20
2013,04,24,16,47,17.20
2013,04,24,16,48,17.20
2013,04,24,16,49,17.20
2013,04,24,16,50,17.00
2013,04,24,16,51,16.90
2013,04,24,16,52,16.80
2013,04,24,16,53,16.70
2013,04,24,16,54,16.60
2013,04,24,16,55,16.50
2013,04,24,16,56,16.40
2013,04,24,16,57,16.40
2013,04,24,16,58,16.30
2013,04,24,16,59,16.30
2013,04,24,17,00,16.30
2013,04,24,17,01,16.30
2013,04,24,17,02,16.30
2013,04,24,17,03,16.30
2013,04,24,17,04,16.30
2013,04,24,17,05,16.30
2013,04,24,17,06,16.30
2013,04,24,17,07,16.30
2013,04,24,17,08,16.30
2013,04,24,17,09,16.30
2013,04,24,17,10,16.30
2013,04,24,17,11,16.30
2013,04,24,17,12,16.30
2013,04,24,17,13,16.30
2013,04,24,17,14,16.30
2013,04,24,17,15,16.40
2013,04,24,17,16,16.40
2013,04,24,17,17,16.50
2013,04,24,17,18,16.50
2013,04,24,17,19,16.50
2013,04,24,17,20,16.50
2013,04,24,17,21,16.50
2013,04,24,17,22,16.50
2013,04,24,17,23,16.60
2013,04,24,17,24,16.60
2013,04,24,17,25,16.60
2013,04,24,17,26,16.60
2013,04,24,17,27,16.60
2013,04,24,17,28,16.60
2013,04,24,17,29,16.60
2013,04,24,17,30,16.60
2013,04,24,17,31,16.60
2013,04,24,17,32,16.60
2013,04,24,17,33,16.70
2013,04,24,17,34,16.70
2013,04,24,17,35,16.70
2013,04,24,17,36,16.70
2013,04,24,17,37,16.70
2013,04,24,17,38,16.70
2013,04,24,17,39,16.70
2013,04,24,17,40,16.80
2013,04,24,17,41,16.80
2013,04,24,17,42,16.80
2013,04,24,17,43,16.80
2013,04,24,17,44,16.70